| time (UTC) | temp C | wind direction | speed KPH | gust KPH | rain 1hr cm | rain 24hr cm | rain mn cm | humidity % | barometer mb |
| 20260508213552 | 25 | 279 | 6.4 | 19.3 | 0.00 | 0.00 | 0.00 | 20 | 1015.6 |
| 20260508212552 | 24 | 313 | 4.8 | 16.1 | 0.00 | 0.00 | 0.00 | 21 | 1015.8 |
| 20260508212052 | 24 | 352 | 1.6 | 16.1 | 0.00 | 0.00 | 0.00 | 21 | 1015.8 |
| 20260508211552 | 24 | 20 | 8.0 | 19.3 | 0.00 | 0.00 | 0.00 | 20 | 1015.8 |
| 20260508211053 | 24 | 305 | 6.4 | 19.3 | 0.00 | 0.00 | 0.00 | 23 | 1015.9 |
| 20260508210052 | 23 | 315 | 8.0 | 30.6 | 0.00 | 0.00 | 0.00 | 21 | 1016.1 |
| 20260508205552 | 24 | 21 | 16.1 | 30.6 | 0.00 | 0.00 | 0.00 | 21 | 1016.1 |
| 20260508205052 | 24 | 360 | 6.4 | 25.7 | 0.00 | 0.00 | 0.00 | 21 | 1016.2 |
| 20260508204552 | 25 | 311 | 12.9 | 25.7 | 0.00 | 0.00 | 0.00 | 20 | 1016.6 |
| 20260508204052 | 25 | 282 | 12.9 | 22.5 | 0.00 | 0.00 | 0.00 | 20 | 1016.6 |
| 20260508203552 | 25 | 255 | 17.7 | 22.5 | 0.00 | 0.00 | 0.00 | 21 | 1016.6 |
| 20260508203052 | 24 | 296 | 6.4 | 20.9 | 0.00 | 0.00 | 0.00 | 20 | 1016.5 |
| 20260508202552 | 24 | 340 | 1.6 | 20.9 | 0.00 | 0.00 | 0.00 | 20 | 1016.5 |
| 20260508202052 | 25 | 287 | 6.4 | 20.9 | 0.00 | 0.00 | 0.00 | 21 | 1016.8 |
| 20260508201051 | 25 | 314 | 4.8 | 20.9 | 0.00 | 0.00 | 0.00 | 21 | 1017.1 |
| 20260508200551 | 24 | 297 | 6.4 | 20.9 | 0.00 | 0.00 | 0.00 | 22 | 1016.8 |
| 20260508200051 | 23 | 270 | 14.5 | 20.9 | 0.00 | 0.00 | 0.00 | 22 | 1016.9 |
| 20260508195551 | 24 | 3 | 6.4 | 22.5 | 0.00 | 0.00 | 0.00 | 23 | 1016.8 |
| 20260508195051 | 23 | 286 | 17.7 | 22.5 | 0.00 | 0.00 | 0.00 | 21 | 1016.9 |
| 20260508194552 | 23 | 292 | 12.9 | 19.3 | 0.00 | 0.00 | 0.00 | 24 | 1016.6 |
| 20260508194052 | 23 | 7 | 8.0 | 22.5 | 0.00 | 0.00 | 0.00 | 24 | 1016.6 |
| 20260508193551 | 23 | 319 | 4.8 | 22.5 | 0.00 | 0.00 | 0.00 | 22 | 1017.0 |
| 20260508193051 | 23 | 273 | 6.4 | 22.5 | 0.00 | 0.00 | 0.00 | 24 | 1016.7 |
| 20260508192552 | 23 | 327 | 6.4 | 19.3 | 0.00 | 0.00 | 0.00 | 24 | 1016.7 |
| 20260508192051 | 23 | 360 | 14.5 | 19.3 | 0.00 | 0.00 | 0.00 | 24 | 1016.8 |
| 20260508191551 | 23 | 283 | 3.2 | 17.7 | 0.00 | 0.00 | 0.00 | 22 | 1017.1 |
| 20260508191051 | 23 | 271 | 1.6 | 20.9 | 0.00 | 0.00 | 0.00 | 23 | 1017.1 |
| 20260508190551 | 23 | 284 | 6.4 | 20.9 | 0.00 | 0.00 | 0.00 | 23 | 1017.3 |
| 20260508190051 | 23 | 253 | 12.9 | 22.5 | 0.00 | 0.00 | 0.00 | 22 | 1017.7 |
| 20260508185551 | 23 | 282 | 9.7 | 24.1 | 0.00 | 0.00 | 0.00 | 22 | 1017.7 |
| 20260508185052 | 23 | 284 | 22.5 | 24.1 | 0.00 | 0.00 | 0.00 | 23 | 1017.7 |
| 20260508184050 | 23 | 273 | 16.1 | 19.3 | 0.00 | 0.00 | 0.00 | 24 | 1017.9 |
| 20260508183550 | 23 | 280 | 11.3 | 16.1 | 0.00 | 0.00 | 0.00 | 25 | 1017.8 |
| 20260508183051 | 23 | 242 | 4.8 | 17.7 | 0.00 | 0.00 | 0.00 | 24 | 1017.8 |
| 20260508182550 | 23 | 282 | 12.9 | 17.7 | 0.00 | 0.00 | 0.00 | 24 | 1017.9 |
| 20260508182051 | 23 | 281 | 14.5 | 19.3 | 0.00 | 0.00 | 0.00 | 24 | 1017.6 |
| 20260508181050 | 23 | 300 | 16.1 | 22.5 | 0.00 | 0.00 | 0.00 | 24 | 1018.3 |
| 20260508180551 | 23 | 298 | 16.1 | 22.5 | 0.00 | 0.00 | 0.00 | 24 | 1018.3 |
| 20260508180051 | 23 | 266 | 6.4 | 19.3 | 0.00 | 0.00 | 0.00 | 24 | 1018.1 |
| 20260508175550 | 23 | 298 | 11.3 | 19.3 | 0.00 | 0.00 | 0.00 | 25 | 1018.0 |
| 20260508175050 | 22 | 302 | 1.6 | 17.7 | 0.00 | 0.00 | 0.00 | 25 | 1018.1 |
| 20260508174551 | 22 | 311 | 11.3 | 17.7 | 0.00 | 0.00 | 0.00 | 26 | 1017.9 |
| 20260508174050 | 22 | 334 | 3.2 | 14.5 | 0.00 | 0.00 | 0.00 | 26 | 1017.9 |
| 20260508173551 | 22 | 343 | 3.2 | 14.5 | 0.00 | 0.00 | 0.00 | 27 | 1017.9 |
| 20260508173050 | 22 | 290 | 9.7 | 14.5 | 0.00 | 0.00 | 0.00 | 29 | 1018.4 |
| 20260508172550 | 22 | 268 | 4.8 | 11.3 | 0.00 | 0.00 | 0.00 | 32 | 1018.0 |
| 20260508172050 | 21 | 6 | 3.2 | 11.3 | 0.00 | 0.00 | 0.00 | 30 | 1017.9 |
| 20260508171550 | 21 | 9 | 3.2 | 16.1 | 0.00 | 0.00 | 0.00 | 30 | 1018.2 |
| 20260508171050 | 21 | 300 | 4.8 | 16.1 | 0.00 | 0.00 | 0.00 | 30 | 1018.2 |
| 20260508170550 | 21 | 9 | 6.4 | 9.7 | 0.00 | 0.00 | 0.00 | 31 | 1018.2 |
| 20260508170049 | 21 | 9 | 4.8 | 11.3 | 0.00 | 0.00 | 0.00 | 30 | 1018.1 |
| 20260508165550 | 21 | 9 | 1.6 | 11.3 | 0.00 | 0.00 | 0.00 | 29 | 1018.1 |
| 20260508164550 | 21 | 3 | 1.6 | 11.3 | 0.00 | 0.00 | 0.00 | 30 | 1018.0 |
| 20260508164049 | 21 | 2 | 1.6 | 11.3 | 0.00 | 0.00 | 0.00 | 34 | 1018.1 |
| 20260508163549 | 21 | 6 | 1.6 | 11.3 | 0.00 | 0.00 | 0.00 | 33 | 1018.1 |
| 20260508163050 | 21 | 5 | 3.2 | 11.3 | 0.00 | 0.00 | 0.00 | 34 | 1018.1 |
| 20260508162550 | 20 | 6 | 3.2 | 11.3 | 0.00 | 0.00 | 0.00 | 34 | 1017.8 |
| 20260508162049 | 20 | 9 | 8.0 | 11.3 | 0.00 | 0.00 | 0.00 | 32 | 1017.7 |
| 20260508161549 | 21 | 23 | 4.8 | 9.7 | 0.00 | 0.00 | 0.00 | 33 | 1018.3 |
| 20260508161050 | 20 | 43 | 0.0 | 0.0 | 0.00 | 0.00 | 0.00 | 36 | 1018.2 |
| 20260508160549 | 20 | 42 | 0.0 | 0.0 | 0.00 | 0.00 | 0.00 | 33 | 1018.1 |
| 20260508160049 | 20 | 43 | 0.0 | 0.0 | 0.00 | 0.00 | 0.00 | 35 | 1018.1 |
| 20260508155550 | 20 | 42 | 0.0 | 0.0 | 0.00 | 0.00 | 0.00 | 34 | 1018.1 |
| 20260508154549 | 20 | 43 | 0.0 | 0.0 | 0.00 | 0.00 | 0.00 | 35 | 1017.8 |
| 20260508154049 | 20 | 42 | 0.0 | 0.0 | 0.00 | 0.00 | 0.00 | 36 | 1017.8 |
| 20260508153049 | 18 | 42 | 0.0 | 0.0 | 0.00 | 0.00 | 0.00 | 38 | 1017.5 |
| 20260508152549 | 18 | 42 | 0.0 | 0.0 | 0.00 | 0.00 | 0.00 | 40 | 1017.5 |
| 20260508152049 | 18 | 42 | 0.0 | 0.0 | 0.00 | 0.00 | 0.00 | 41 | 1017.5 |
| 20260508151549 | 18 | 42 | 0.0 | 0.0 | 0.00 | 0.00 | 0.00 | 42 | 1018.1 |
| 20260508151049 | 18 | 42 | 0.0 | 0.0 | 0.00 | 0.00 | 0.00 | 41 | 1018.1 |
| 20260508150549 | 18 | 42 | 0.0 | 0.0 | 0.00 | 0.00 | 0.00 | 43 | 1018.1 |
| 20260508150049 | 17 | 43 | 0.0 | 0.0 | 0.00 | 0.00 | 0.00 | 43 | 1017.9 |
| 20260508145548 | 17 | 42 | 0.0 | 0.0 | 0.00 | 0.00 | 0.00 | 45 | 1017.8 |
| 20260508144048 | 16 | 42 | 0.0 | 0.0 | 0.00 | 0.00 | 0.00 | 50 | 1017.7 |
| 20260508143548 | 16 | 43 | 0.0 | 0.0 | 0.00 | 0.00 | 0.00 | 51 | 1017.7 |
| 20260508143048 | 15 | 43 | 0.0 | 0.0 | 0.00 | 0.00 | 0.00 | 54 | 1017.4 |
| 20260508142048 | 14 | 42 | 0.0 | 1.6 | 0.00 | 0.00 | 0.00 | 60 | 1017.0 |
| 20260508141548 | 13 | 42 | 0.0 | 3.2 | 0.00 | 0.00 | 0.00 | 61 | 1018.0 |
| 20260508141048 | 13 | 42 | 0.0 | 4.8 | 0.00 | 0.00 | 0.00 | 63 | 1018.0 |
| 20260508140048 | 12 | 42 | 3.2 | 4.8 | 0.00 | 0.00 | 0.00 | 66 | 1017.6 |
| 20260508135048 | 11 | 42 | 0.0 | 1.6 | 0.00 | 0.00 | 0.00 | 71 | 1017.1 |
| 20260508134548 | 10 | 42 | 0.0 | 1.6 | 0.00 | 0.00 | 0.00 | 71 | 1016.8 |
| 20260508134048 | 10 | 43 | 0.0 | 1.6 | 0.00 | 0.00 | 0.00 | 71 | 1016.8 |
| 20260508133548 | 10 | 42 | 0.0 | 0.0 | 0.00 | 0.00 | 0.00 | 72 | 1016.7 |
| 20260508133048 | 10 | 42 | 0.0 | 0.0 | 0.00 | 0.00 | 0.00 | 73 | 1016.6 |
| 20260508132547 | 9 | 42 | 0.0 | 1.6 | 0.00 | 0.00 | 0.00 | 74 | 1016.3 |
| 20260508132047 | 8 | 42 | 0.0 | 1.6 | 0.00 | 0.00 | 0.00 | 75 | 1016.3 |
| 20260508131547 | 8 | 42 | 0.0 | 0.0 | 0.00 | 0.00 | 0.00 | 75 | 1016.5 |
| 20260508130548 | 8 | 42 | 0.0 | 0.0 | 0.00 | 0.00 | 0.00 | 75 | 1016.4 |
| 20260508125548 | 8 | 42 | 0.0 | 0.0 | 0.00 | 0.00 | 0.00 | 74 | 1016.3 |
| 20260508125047 | 8 | 42 | 0.0 | 0.0 | 0.00 | 0.00 | 0.00 | 74 | 1016.3 |
| 20260508124547 | 8 | 43 | 0.0 | 0.0 | 0.00 | 0.00 | 0.00 | 74 | 1016.2 |
| 20260508123047 | 8 | 42 | 0.0 | 0.0 | 0.00 | 0.00 | 0.00 | 73 | 1016.1 |
| 20260508122547 | 8 | 44 | 0.0 | 0.0 | 0.00 | 0.00 | 0.00 | 73 | 1016.2 |
| 20260508122047 | 8 | 42 | 0.0 | 0.0 | 0.00 | 0.00 | 0.00 | 73 | 1016.1 |
| 20260508121547 | 8 | 42 | 0.0 | 0.0 | 0.00 | 0.00 | 0.00 | 72 | 1016.1 |
| 20260508121047 | 8 | 42 | 0.0 | 0.0 | 0.00 | 0.00 | 0.00 | 72 | 1015.9 |
| 20260508120047 | 8 | 44 | 0.0 | 0.0 | 0.00 | 0.00 | 0.00 | 72 | 1015.9 |
| 20260508115547 | 8 | 42 | 0.0 | 0.0 | 0.00 | 0.00 | 0.00 | 72 | 1015.9 |
| 20260508115047 | 8 | 42 | 0.0 | 0.0 | 0.00 | 0.00 | 0.00 | 72 | 1015.9 |
| 20260508114047 | 8 | 43 | 0.0 | 0.0 | 0.00 | 0.00 | 0.00 | 71 | 1015.8 |
| 20260508113547 | 8 | 42 | 0.0 | 0.0 | 0.00 | 0.00 | 0.00 | 71 | 1015.9 |
| 20260508113046 | 8 | 42 | 0.0 | 0.0 | 0.00 | 0.00 | 0.00 | 71 | 1015.8 |
| 20260508112546 | 8 | 42 | 0.0 | 1.6 | 0.00 | 0.00 | 0.00 | 71 | 1015.8 |
| 20260508112046 | 8 | 42 | 0.0 | 1.6 | 0.00 | 0.00 | 0.00 | 71 | 1015.8 |
| 20260508111547 | 8 | 42 | 0.0 | 0.0 | 0.00 | 0.00 | 0.00 | 71 | 1016.0 |
| 20260508111047 | 8 | 42 | 0.0 | 1.6 | 0.00 | 0.00 | 0.00 | 70 | 1016.1 |
| 20260508110546 | 8 | 42 | 0.0 | 1.6 | 0.00 | 0.00 | 0.00 | 71 | 1016.0 |
| 20260508105546 | 8 | 42 | 0.0 | 3.2 | 0.00 | 0.00 | 0.00 | 70 | 1016.0 |
| 20260508105046 | 8 | 42 | 0.0 | 3.2 | 0.00 | 0.00 | 0.00 | 70 | 1016.1 |
| 20260508104546 | 8 | 42 | 0.0 | 0.0 | 0.00 | 0.00 | 0.00 | 70 | 1016.1 |
| 20260508104046 | 8 | 42 | 0.0 | 0.0 | 0.00 | 0.00 | 0.00 | 70 | 1015.9 |
| 20260508103546 | 8 | 43 | 0.0 | 0.0 | 0.00 | 0.00 | 0.00 | 70 | 1015.9 |
| 20260508103046 | 8 | 42 | 0.0 | 3.2 | 0.00 | 0.00 | 0.00 | 70 | 1015.9 |
| 20260508102546 | 8 | 42 | 0.0 | 3.2 | 0.00 | 0.00 | 0.00 | 70 | 1015.9 |
| 20260508102046 | 8 | 42 | 0.0 | 0.0 | 0.00 | 0.00 | 0.00 | 69 | 1015.9 |
| 20260508101046 | 8 | 42 | 0.0 | 0.0 | 0.00 | 0.00 | 0.00 | 69 | 1015.5 |
| 20260508100546 | 8 | 42 | 0.0 | 0.0 | 0.00 | 0.00 | 0.00 | 69 | 1015.4 |
| 20260508100046 | 9 | 42 | 0.0 | 0.0 | 0.00 | 0.00 | 0.00 | 69 | 1015.7 |
| 20260508095546 | 9 | 42 | 0.0 | 4.8 | 0.00 | 0.00 | 0.00 | 69 | 1015.8 |
| 20260508095045 | 9 | 42 | 0.0 | 4.8 | 0.00 | 0.00 | 0.00 | 69 | 1015.7 |
| 20260508094546 | 9 | 42 | 0.0 | 1.6 | 0.00 | 0.00 | 0.00 | 69 | 1015.8 |
| 20260508094046 | 9 | 42 | 0.0 | 6.4 | 0.00 | 0.00 | 0.00 | 69 | 1015.6 |
| 20260508093545 | 9 | 42 | 1.6 | 6.4 | 0.00 | 0.00 | 0.00 | 69 | 1015.6 |
| 20260508093045 | 9 | 42 | 0.0 | 3.2 | 0.00 | 0.00 | 0.00 | 68 | 1015.5 |
| 20260508092045 | 9 | 42 | 0.0 | 3.2 | 0.00 | 0.00 | 0.00 | 67 | 1015.6 |
| 20260508091546 | 9 | 42 | 0.0 | 4.8 | 0.00 | 0.00 | 0.00 | 68 | 1015.4 |
| 20260508091045 | 10 | 42 | 0.0 | 4.8 | 0.00 | 0.00 | 0.00 | 68 | 1015.8 |
| 20260508090545 | 10 | 42 | 4.8 | 4.8 | 0.00 | 0.00 | 0.00 | 67 | 1015.8 |
| 20260508090045 | 10 | 42 | 0.0 | 0.0 | 0.00 | 0.00 | 0.00 | 67 | 1015.7 |
| 20260508084545 | 10 | 42 | 0.0 | 0.0 | 0.00 | 0.00 | 0.00 | 66 | 1015.8 |
| 20260508084045 | 10 | 42 | 0.0 | 0.0 | 0.00 | 0.00 | 0.00 | 66 | 1016.0 |
| 20260508083545 | 10 | 42 | 0.0 | 0.0 | 0.00 | 0.00 | 0.00 | 66 | 1016.0 |
| 20260508082545 | 10 | 42 | 0.0 | 0.0 | 0.00 | 0.00 | 0.00 | 65 | 1015.9 |
| 20260508082045 | 10 | 42 | 0.0 | 0.0 | 0.00 | 0.00 | 0.00 | 65 | 1015.8 |
| 20260508081545 | 10 | 42 | 0.0 | 0.0 | 0.00 | 0.00 | 0.00 | 65 | 1015.9 |
| 20260508081044 | 10 | 42 | 0.0 | 0.0 | 0.00 | 0.00 | 0.00 | 64 | 1015.9 |
| 20260508080545 | 10 | 41 | 0.0 | 4.8 | 0.00 | 0.00 | 0.00 | 64 | 1015.9 |
| 20260508080045 | 11 | 42 | 0.0 | 4.8 | 0.00 | 0.00 | 0.00 | 64 | 1015.9 |
| 20260508075545 | 11 | 42 | 0.0 | 3.2 | 0.00 | 0.00 | 0.00 | 63 | 1015.8 |
| 20260508075045 | 11 | 42 | 0.0 | 3.2 | 0.00 | 0.00 | 0.00 | 63 | 1015.8 |
| 20260508074544 | 11 | 41 | 0.0 | 0.0 | 0.00 | 0.00 | 0.00 | 63 | 1015.8 |
| 20260508074045 | 11 | 42 | 0.0 | 0.0 | 0.00 | 0.00 | 0.00 | 62 | 1015.8 |
| 20260508073044 | 11 | 42 | 0.0 | 0.0 | 0.00 | 0.00 | 0.00 | 62 | 1015.7 |
| 20260508072544 | 11 | 41 | 0.0 | 0.0 | 0.00 | 0.00 | 0.00 | 62 | 1015.7 |
| 20260508072045 | 11 | 42 | 0.0 | 0.0 | 0.00 | 0.00 | 0.00 | 61 | 1015.9 |
| 20260508071044 | 11 | 42 | 0.0 | 0.0 | 0.00 | 0.00 | 0.00 | 61 | 1015.7 |
| 20260508070544 | 11 | 42 | 0.0 | 0.0 | 0.00 | 0.00 | 0.00 | 60 | 1015.6 |
| 20260508065544 | 12 | 43 | 0.0 | 0.0 | 0.00 | 0.00 | 0.00 | 59 | 1015.7 |
| 20260508065044 | 12 | 42 | 0.0 | 0.0 | 0.00 | 0.00 | 0.00 | 59 | 1015.7 |
| 20260508064544 | 12 | 42 | 0.0 | 0.0 | 0.00 | 0.00 | 0.00 | 59 | 1015.7 |
| 20260508063543 | 12 | 42 | 0.0 | 0.0 | 0.00 | 0.00 | 0.00 | 57 | 1015.9 |
| 20260508063044 | 12 | 42 | 0.0 | 0.0 | 0.00 | 0.00 | 0.00 | 56 | 1016.0 |
| 20260508062544 | 12 | 43 | 0.0 | 0.0 | 0.00 | 0.00 | 0.00 | 56 | 1015.9 |
| 20260508062044 | 12 | 42 | 0.0 | 0.0 | 0.00 | 0.00 | 0.00 | 56 | 1015.9 |
| 20260508061544 | 13 | 43 | 0.0 | 0.0 | 0.00 | 0.00 | 0.00 | 55 | 1015.7 |
| 20260508061044 | 13 | 43 | 0.0 | 0.0 | 0.00 | 0.00 | 0.00 | 55 | 1015.7 |
| 20260508060544 | 13 | 42 | 0.0 | 0.0 | 0.00 | 0.00 | 0.00 | 54 | 1015.6 |
| 20260508055543 | 13 | 42 | 0.0 | 1.6 | 0.00 | 0.00 | 0.00 | 53 | 1015.7 |
| 20260508055044 | 13 | 42 | 0.0 | 1.6 | 0.00 | 0.00 | 0.00 | 52 | 1015.7 |
| 20260508054543 | 13 | 41 | 0.0 | 0.0 | 0.00 | 0.00 | 0.00 | 52 | 1015.8 |
| 20260508054043 | 13 | 42 | 0.0 | 3.2 | 0.00 | 0.00 | 0.00 | 51 | 1015.7 |
| 20260508053544 | 14 | 42 | 0.0 | 3.2 | 0.00 | 0.00 | 0.00 | 51 | 1015.6 |
| 20260508052544 | 14 | 42 | 0.0 | 3.2 | 0.00 | 0.00 | 0.00 | 50 | 1015.7 |
| 20260508051543 | 15 | 43 | 1.6 | 4.8 | 0.00 | 0.00 | 0.00 | 49 | 1015.3 |
| 20260508051043 | 15 | 42 | 0.0 | 4.8 | 0.00 | 0.00 | 0.00 | 48 | 1015.4 |
| 20260508050543 | 15 | 42 | 0.0 | 4.8 | 0.00 | 0.00 | 0.00 | 48 | 1015.3 |
| 20260508050043 | 15 | 42 | 0.0 | 3.2 | 0.00 | 0.00 | 0.00 | 47 | 1015.3 |
| 20260508045543 | 15 | 42 | 0.0 | 4.8 | 0.00 | 0.00 | 0.00 | 46 | 1015.1 |
| 20260508044543 | 15 | 42 | 0.0 | 4.8 | 0.00 | 0.00 | 0.00 | 47 | 1015.4 |
| 20260508044043 | 15 | 42 | 0.0 | 4.8 | 0.00 | 0.00 | 0.00 | 47 | 1015.4 |
| 20260508043542 | 15 | 42 | 0.0 | 3.2 | 0.00 | 0.00 | 0.00 | 46 | 1015.2 |
| 20260508043042 | 15 | 42 | 0.0 | 4.8 | 0.00 | 0.00 | 0.00 | 46 | 1015.2 |
| 20260508042542 | 15 | 42 | 3.2 | 4.8 | 0.00 | 0.00 | 0.00 | 45 | 1015.2 |
| 20260508042042 | 16 | 43 | 1.6 | 4.8 | 0.00 | 0.00 | 0.00 | 46 | 1015.5 |
| 20260508041542 | 16 | 42 | 0.0 | 3.2 | 0.00 | 0.00 | 0.00 | 45 | 1014.5 |
| 20260508041042 | 16 | 43 | 0.0 | 3.2 | 0.00 | 0.00 | 0.00 | 44 | 1014.6 |
| 20260508040542 | 16 | 41 | 0.0 | 0.0 | 0.00 | 0.00 | 0.00 | 43 | 1014.8 |
| 20260508040042 | 16 | 42 | 0.0 | 0.0 | 0.00 | 0.00 | 0.00 | 42 | 1014.7 |
| 20260508035543 | 16 | 42 | 0.0 | 0.0 | 0.00 | 0.00 | 0.00 | 42 | 1014.7 |
| 20260508035042 | 17 | 42 | 0.0 | 3.2 | 0.00 | 0.00 | 0.00 | 42 | 1014.7 |
| 20260508034542 | 17 | 42 | 0.0 | 3.2 | 0.00 | 0.00 | 0.00 | 42 | 1014.7 |
| 20260508034043 | 17 | 43 | 1.6 | 3.2 | 0.00 | 0.00 | 0.00 | 41 | 1014.9 |
| 20260508033543 | 17 | 43 | 0.0 | 3.2 | 0.00 | 0.00 | 0.00 | 41 | 1015.0 |
| 20260508033042 | 17 | 42 | 3.2 | 3.2 | 0.00 | 0.00 | 0.00 | 40 | 1014.9 |
| 20260508032542 | 18 | 42 | 0.0 | 3.2 | 0.00 | 0.00 | 0.00 | 39 | 1015.0 |
| 20260508032042 | 18 | 42 | 0.0 | 3.2 | 0.00 | 0.00 | 0.00 | 38 | 1014.9 |
| 20260508031542 | 18 | 42 | 0.0 | 1.6 | 0.00 | 0.00 | 0.00 | 37 | 1014.8 |
| 20260508031042 | 18 | 44 | 0.0 | 1.6 | 0.00 | 0.00 | 0.00 | 36 | 1014.7 |
| 20260508030542 | 19 | 42 | 1.6 | 1.6 | 0.00 | 0.00 | 0.00 | 35 | 1014.6 |
| 20260508030042 | 19 | 42 | 0.0 | 3.2 | 0.00 | 0.00 | 0.00 | 35 | 1014.6 |
| 20260508025042 | 20 | 42 | 1.6 | 3.2 | 0.00 | 0.00 | 0.00 | 33 | 1014.9 |
| 20260508024541 | 20 | 41 | 0.0 | 0.0 | 0.00 | 0.00 | 0.00 | 32 | 1015.0 |
| 20260508024042 | 21 | 42 | 0.0 | 0.0 | 0.00 | 0.00 | 0.00 | 30 | 1015.2 |
| 20260508023042 | 21 | 42 | 0.0 | 0.0 | 0.00 | 0.00 | 0.00 | 29 | 1015.2 |
| 20260508022541 | 22 | 42 | 0.0 | 3.2 | 0.00 | 0.00 | 0.00 | 28 | 1015.5 |
| 20260508022042 | 22 | 42 | 0.0 | 3.2 | 0.00 | 0.00 | 0.00 | 27 | 1015.4 |
| 20260508021541 | 22 | 42 | 0.0 | 3.2 | 0.00 | 0.00 | 0.00 | 27 | 1014.6 |
| 20260508021041 | 22 | 43 | 0.0 | 4.8 | 0.00 | 0.00 | 0.00 | 26 | 1014.5 |
| 20260508020542 | 22 | 42 | 1.6 | 4.8 | 0.00 | 0.00 | 0.00 | 25 | 1014.5 |
| 20260508020041 | 23 | 42 | 1.6 | 4.8 | 0.00 | 0.00 | 0.00 | 25 | 1014.8 |
| 20260508015541 | 23 | 43 | 1.6 | 4.8 | 0.00 | 0.00 | 0.00 | 25 | 1014.8 |
| 20260508015041 | 23 | 43 | 0.0 | 4.8 | 0.00 | 0.00 | 0.00 | 24 | 1014.8 |
| 20260508014541 | 23 | 43 | 0.0 | 4.8 | 0.00 | 0.00 | 0.00 | 24 | 1014.8 |
| 20260508014041 | 23 | 43 | 3.2 | 4.8 | 0.00 | 0.00 | 0.00 | 24 | 1014.8 |
| 20260508013041 | 23 | 42 | 0.0 | 6.4 | 0.00 | 0.00 | 0.00 | 23 | 1014.8 |
| 20260508012541 | 23 | 43 | 0.0 | 6.4 | 0.00 | 0.00 | 0.00 | 23 | 1014.9 |
| 20260508012041 | 23 | 43 | 6.4 | 6.4 | 0.00 | 0.00 | 0.00 | 23 | 1014.9 |
| 20260508011540 | 23 | 42 | 1.6 | 11.3 | 0.00 | 0.00 | 0.00 | 23 | 1013.8 |
| 20260508011041 | 23 | 42 | 1.6 | 11.3 | 0.00 | 0.00 | 0.00 | 24 | 1013.7 |
| 20260508010541 | 23 | 28 | 4.8 | 8.0 | 0.00 | 0.00 | 0.00 | 24 | 1013.7 |
| 20260508005540 | 23 | 28 | 0.0 | 8.0 | 0.00 | 0.00 | 0.00 | 24 | 1013.9 |
| 20260508005041 | 23 | 27 | 4.8 | 8.0 | 0.00 | 0.00 | 0.00 | 23 | 1013.9 |
| 20260508004540 | 23 | 28 | 1.6 | 6.4 | 0.00 | 0.00 | 0.00 | 23 | 1014.0 |
| 20260508003540 | 23 | 28 | 4.8 | 9.7 | 0.00 | 0.00 | 0.00 | 24 | 1014.2 |
| 20260508003040 | 23 | 27 | 6.4 | 9.7 | 0.00 | 0.00 | 0.00 | 24 | 1014.2 |
| 20260508002540 | 23 | 24 | 8.0 | 8.0 | 0.00 | 0.00 | 0.00 | 24 | 1014.3 |
| 20260508001541 | 23 | 23 | 4.8 | 9.7 | 0.00 | 0.00 | 0.00 | 24 | 1014.0 |
| 20260508001040 | 23 | 15 | 1.6 | 6.4 | 0.00 | 0.00 | 0.00 | 23 | 1014.1 |
| 20260508000540 | 23 | 15 | 0.0 | 3.2 | 0.00 | 0.00 | 0.00 | 24 | 1014.2 |
| 20260508000040 | 23 | 15 | 0.0 | 3.2 | 0.00 | 0.00 | 0.00 | 23 | 1014.2 |
| 20260507235540 | 23 | 15 | 3.2 | 6.4 | 0.00 | 0.00 | 0.00 | 23 | 1014.3 |
| 20260507235040 | 23 | 15 | 0.0 | 6.4 | 0.00 | 0.00 | 0.00 | 23 | 1014.3 |
| 20260507234540 | 23 | 15 | 3.2 | 6.4 | 0.00 | 0.00 | 0.00 | 23 | 1014.4 |
| 20260507234040 | 23 | 14 | 3.2 | 6.4 | 0.00 | 0.00 | 0.00 | 24 | 1014.5 |
| 20260507233040 | 24 | 14 | 3.2 | 8.0 | 0.00 | 0.00 | 0.00 | 23 | 1014.6 |
| 20260507232540 | 24 | 14 | 1.6 | 14.5 | 0.00 | 0.00 | 0.00 | 22 | 1014.7 |
| 20260507232040 | 25 | 11 | 4.8 | 14.5 | 0.00 | 0.00 | 0.00 | 22 | 1014.9 |
| 20260507231539 | 25 | 38 | 4.8 | 12.9 | 0.00 | 0.00 | 0.00 | 21 | 1015.0 |
| 20260507231039 | 25 | 302 | 3.2 | 12.9 | 0.00 | 0.00 | 0.00 | 23 | 1015.1 |
| 20260507230540 | 24 | 310 | 4.8 | 11.3 | 0.00 | 0.00 | 0.00 | 23 | 1014.9 |
| 20260507230040 | 24 | 356 | 0.0 | 11.3 | 0.00 | 0.00 | 0.00 | 23 | 1015.0 |
| 20260507225039 | 23 | 64 | 0.0 | 17.7 | 0.00 | 0.00 | 0.00 | 23 | 1015.2 |
| 20260507224539 | 24 | 46 | 8.0 | 17.7 | 0.00 | 0.00 | 0.00 | 23 | 1015.3 |
| 20260507224040 | 24 | 300 | 6.4 | 12.9 | 0.00 | 0.00 | 0.00 | 25 | 1015.4 |
| 20260507223539 | 23 | 29 | 8.0 | 12.9 | 0.00 | 0.00 | 0.00 | 25 | 1015.4 |
| 20260507223039 | 23 | 344 | 11.3 | 17.7 | 0.00 | 0.00 | 0.00 | 27 | 1015.5 |
| 20260507222539 | 23 | 19 | 6.4 | 19.3 | 0.00 | 0.00 | 0.00 | 24 | 1015.4 |
| 20260507222040 | 23 | 334 | 6.4 | 20.9 | 0.00 | 0.00 | 0.00 | 24 | 1015.7 |
| 20260507221539 | 24 | 352 | 4.8 | 20.9 | 0.00 | 0.00 | 0.00 | 24 | 1015.7 |
| 20260507221039 | 25 | 355 | 12.9 | 16.1 | 0.00 | 0.00 | 0.00 | 23 | 1015.9 |
| 20260507220539 | 24 | 298 | 3.2 | 17.7 | 0.00 | 0.00 | 0.00 | 24 | 1015.7 |
| 20260507220039 | 24 | 293 | 11.3 | 17.7 | 0.00 | 0.00 | 0.00 | 23 | 1015.8 |
| 20260507215539 | 25 | 330 | 4.8 | 14.5 | 0.00 | 0.00 | 0.00 | 24 | 1016.2 |
| 20260507215039 | 25 | 319 | 4.8 | 12.9 | 0.00 | 0.00 | 0.00 | 24 | 1016.3 |
| 20260507214539 | 24 | 311 | 3.2 | 12.9 | 0.00 | 0.00 | 0.00 | 24 | 1016.1 |
| 20260507214038 | 24 | 338 | 3.2 | 12.9 | 0.00 | 0.00 | 0.00 | 24 | 1016.1 |